This demonstration page uses our WeatherBlox Daily Observations layout. Learn more.

Left ArrowRight Arrow

Hourly Observations for August 8, 2020

Temp ( °F °C ) Dew Point ( °F °C ) Humidity (%) Winds ( mph kmh ) Pressure ( in mb ) Visibility ( mi km ) Precip ( " mm )
12:15 am 00:15 Clear 74 23.2 70 21.3 89 89 SE 7 11 29.78 1009 10 16.0934 0 0
12:35 am 00:35 Clear 73 23 70 21.3 90 90 SSE 6 9 29.77 1008 10 16.0934 0 0
12:55 am 00:55 Clear 74 23.2 70 21.2 89 89 SSE 3 6 29.77 1008 10 16.0934 0 0
1:15 am 01:15 Clear 73 22.7 70 21 90 90 SSE 3 6 29.78 1008 10 16.0934 0 0
1:35 am 01:35 Clear 72 22.3 70 20.9 92 92 SSE 5 7 29.78 1008 10 16.0934 0 0
1:55 am 01:55 Clear 73 22.6 70 21.1 91 91 S 5 7 29.79 1009 10 16.0934 0 0
2:15 am 02:15 Clear 72 22 69 20.7 92 92 S 5 7 29.78 1009 10 16.0934 0 0
2:35 am 02:35 Clear 71 21.5 69 20.5 94 94 Calm 29.8 1009 10 16.0934 0 0
2:55 am 02:55 Clear 70 21 68 19.8 93 93 ESE 5 7 29.8 1009 10 16.0934 0 0
3:15 am 03:15 Clear 69 20.7 67 19.7 94 94 ESE 5 7 29.8 1009 10 16.0934 0 0
3:35 am 03:35 Clear 68 20.1 67 19.2 95 95 Calm 29.81 1009 10 16.0934 0 0
3:55 am 03:55 Clear 69 20.7 68 20 96 96 SE 8 13 29.81 1010 10 16.0934 0 0
4:15 am 04:15 Clear 70 21 68 20.1 95 95 ESE 7 11 29.8 1009 10 16.0934 0 0
4:35 am 04:35 Clear 69 20.6 68 19.9 96 96 SE 3 6 29.8 1009 7 11.26538 0 0
4:55 am 04:55 Clear 69 20.5 67 19.7 95 95 ESE 7 11 29.78 1009 7 11.26538 0 0
5:15 am 05:15 Clear 68 20 67 19.4 96 96 SE 5 7 29.8 1009 7 11.26538 0 0
5:35 am 05:35 Clear 67 19.7 66 19 96 96 S 5 7 29.81 1009 7 11.26538 0 0
5:55 am 05:55 Clear with Mist and Fog 67 19.2 65 18.6 96 96 ESE 6 9 29.8 1009 5 8.0467 0 0
6:15 am 06:15 Clear with Mist and Fog 67 19.4 66 18.8 96 96 SSE 3 6 29.81 1010 5 8.0467 0 0
6:35 am 06:35 Clear 67 19.3 66 18.7 96 96 SE 3 6 29.82 1010 7 11.26538 0 0
6:55 am 06:55 Sunny with Mist and Fog 66 19.1 65 18.5 96 96 ESE 3 6 29.83 1010 5 8.0467 0 0
7:15 am 07:15 Sunny with Mist and Fog 67 19.3 66 18.7 96 96 ESE 5 7 29.84 1011 5 8.0467 0 0
7:35 am 07:35 Sunny 68 20.1 67 19.5 96 96 SE 5 7 29.84 1010 7 11.26538 0 0
7:55 am 07:55 Sunny with Mist and Fog 69 20.5 68 19.9 96 96 SE 6 9 29.83 1010 5 8.0467 0 0
8:15 am 08:15 Sunny 70 21.2 69 20.3 95 95 SSE 7 11 29.83 1010 10 16.0934 0 0
8:35 am 08:35 Sunny 72 22.1 69 20.6 91 91 SE 9 15 29.82 1010 10 16.0934 0 0
8:55 am 08:55 Sunny 73 23 70 21.1 89 89 SSE 8 13 29.82 1010 10 16.0934 0 0
9:15 am 09:15 Sunny 74 23.6 70 21.1 86 86 SSE 6 9 29.83 1010 10 16.0934 0 0
9:35 am 09:35 Sunny 76 24.6 71 21.8 84 84 SSE 7 11 29.82 1010 10 16.0934 0 0
9:55 am 09:55 Sunny 78 25.6 71 21.9 80 80 SSE 5 7 29.81 1010 10 16.0934 0 0
10:15 am 10:15 Sunny 80 26.6 72 22 76 76 SSE 6 9 29.79 1009 10 16.0934 0 0
10:35 am 10:35 Sunny 82 27.7 73 22.5 73 73 SE 6 9 29.79 1009 10 16.0934 0 0
10:55 am 10:55 Sunny 84 28.7 72 22 67 67 SE 7 11 29.78 1008 10 16.0934 0 0
11:15 am 11:15 Sunny 85 29.3 72 22.4 66 66 SE 8 13 29.77 1008 10 16.0934 0 0
11:35 am 11:35 Sunny 86 30 73 22.6 65 65 ESE 8 13 29.77 1008 10 16.0934 0 0
11:55 am 11:55 Sunny 86 30.2 73 22.7 64 64 SE 9 15 29.77 1008 10 16.0934 0 0
12:15 pm 12:15 Sunny 87 30.8 74 23.5 65 65 ESE 9 15 29.76 1008 10 16.0934 0 0
12:35 pm 12:35 Sunny 88 31 74 23.1 63 63 ESE 9 15 29.75 1007 10 16.0934 0 0
12:55 pm 12:55 Sunny 89 31.5 73 22.7 60 60 ESE 13 20 29.76 1008 10 16.0934 0 0
1:15 pm 13:15 Sunny 89 31.6 74 23.2 61 61 SE 13 20 29.76 1008 10 16.0934 0 0
1:35 pm 13:35 Sunny 90 32.1 74 23.1 59 59 SSE 10 17 29.74 1007 10 16.0934 0 0
1:55 pm 13:55 Sunny 91 32.5 74 23.2 58 58 SE 12 19 29.74 1007 10 16.0934 0 0
2:15 pm 14:15 Sunny 91 32.9 73 22.9 56 56 SSE 17 28 29.73 1007 10 16.0934 0 0
2:35 pm 14:35 Sunny 91 32.8 74 23.6 58 58 SE 15 24 29.73 1007 10 16.0934 0 0
2:55 pm 14:55 Sunny 91 32.7 74 23.6 59 59 SSE 13 20 29.74 1007 10 16.0934 0 0
3:15 pm 15:15 Sunny 92 33.1 74 23.2 56 56 S 16 26 29.74 1007 10 16.0934 0 0
3:35 pm 15:35 Sunny 92 33.1 71 21.8 51 51 S 15 24 29.73 1007 10 16.0934 0 0
3:55 pm 15:55 Sunny 92 33.1 71 21.8 51 51 SSW 12 19 29.74 1007 10 16.0934 0 0
4:15 pm 16:15 Sunny 93 33.7 71 21.8 50 50 SSW 12 19 29.74 1007 10 16.0934 0 0
4:35 pm 16:35 Sunny 92 33.6 69 20.5 46 46 S 7 11 29.74 1007 10 16.0934 0 0
4:55 pm 16:55 Sunny 92 33.6 70 21.2 48 48 SSE 7 11 29.73 1007 10 16.0934 0 0
5:15 pm 17:15 Sunny 93 33.7 70 21.1 48 48 SSE 6 9 29.73 1007 10 16.0934 0 0
5:35 pm 17:35 Sunny 92 33.5 70 21.1 48 48 SE 5 7 29.73 1007 10 16.0934 0 0
5:55 pm 17:55 Sunny 93 33.8 70 20.9 47 47 SE 6 9 29.72 1006 10 16.0934 0 0
6:15 pm 18:15 Sunny 92 33.6 71 21.8 50 50 SE 7 11 29.71 1006 10 16.0934 0 0
6:35 pm 18:35 Sunny 91 33 73 22.9 55 55 SE 8 13 29.71 1006 10 16.0934 0 0
6:55 pm 18:55 Sunny 91 32.5 72 22.4 55 55 SE 7 11 29.7 1006 10 16.0934 0 0
7:15 pm 19:15 Sunny 90 32 73 22.7 58 58 SE 6 9 29.7 1006 10 16.0934 0 0
7:35 pm 19:35 Sunny 87 30.6 73 23 64 64 SE 6 9 29.71 1006 10 16.0934 0 0
7:55 pm 19:55 Sunny 85 29.5 74 23.5 70 70 SSE 5 7 29.73 1007 10 16.0934 0 0
8:15 pm 20:15 Sunny 84 28.8 74 23.1 71 71 SE 6 9 29.74 1007 10 16.0934 0 0
8:35 pm 20:35 Sunny 82 27.6 73 22.6 74 74 SSE 3 6 29.76 1008 10 16.0934 0 0
8:55 pm 20:55 Clear 82 28 71 21.5 68 68 S 6 9 29.76 1008 10 16.0934 0 0
9:15 pm 21:15 Clear 82 28 70 21.2 67 67 S 6 9 29.76 1008 10 16.0934 0 0
9:35 pm 21:35 Clear 81 27.4 70 20.9 68 68 S 6 9 29.77 1008 10 16.0934 0 0
9:55 pm 21:55 Clear 80 26.8 69 20.6 69 69 S 8 13 29.76 1008 10 16.0934 0 0
10:15 pm 22:15 Clear 81 27.2 68 20 65 65 S 8 13 29.76 1008 10 16.0934 0 0
10:35 pm 22:35 Clear 81 27.2 67 19.7 64 64 S 10 17 29.75 1007 10 16.0934 0 0
10:55 pm 22:55 Clear 81 27.2 67 19.5 63 63 S 9 15 29.74 1007 10 16.0934 0 0
11:15 pm 23:15 Clear 80 26.6 67 19.5 65 65 S 9 15 29.75 1008 10 16.0934 0 0
11:35 pm 23:35 Clear 80 26.5 67 19.6 66 66 S 5 7 29.77 1008 10 16.0934 0 0
11:55 pm 23:55 Clear 79 26.1 67 19.7 68 68 SSE 5 7 29.78 1008 10 16.0934 0 0

Powered by AerisWeather